Location: Columbia
(38.9520°N, 92.3340°W)
Time: 06:54:57
(UTC-05:00)

Iridium 22 - Visible Passes

Search period start: 25 October 2014 00:00
Search period end: 03 November 2014 23:00
Orbit: 776 x 779 km, 86.4° (Epoch: 24 October)

Date Brightness Start Highest point End Pass type
(mag) Time Alt. Az. Time Alt. Az. Time Alt. Az.
25 Oct 5.7 06:30:36 10° N 06:35:50 80° E 06:41:02 10° S visible
25 Oct 6.7 19:26:14 10° SSW 19:31:13 46° W 19:36:13 10° N visible
26 Oct 6.8 05:57:17 10° NNE 06:02:14 42° E 06:07:09 10° SSE visible
26 Oct 5.6 18:52:26 10° S 18:57:38 87° W 19:02:52 10° N visible
27 Oct 7.9 05:24:24 10° NNE 05:28:31 23° ENE 05:32:36 10° SE visible
27 Oct 8.4 20:01:47 10° WSW 20:05:11 17° WNW 20:08:36 10° NW visible
28 Oct 8.6 04:52:31 10° NE 04:54:39 12° ENE 04:56:47 10° E visible
28 Oct 5.5 06:30:43 10° N 06:35:54 70° W 06:41:04 10° S visible
28 Oct 7.5 19:26:47 10° SW 19:31:24 32° W 19:36:02 10° NNW visible
29 Oct 6.0 05:57:13 10° N 06:02:23 63° E 06:07:31 10° SSE visible
29 Oct 6.2 18:52:37 10° SSW 18:57:44 60° W 19:02:54 10° N visible
30 Oct 7.2 05:24:02 10° NNE 05:28:44 33° E 05:33:24 10° SE visible
30 Oct 6.5 07:05:02 10° NNW 07:09:16 26° W 07:13:28 10° SW visible
30 Oct 8.7 20:03:39 10° W 20:05:30 12° WNW 20:07:21 10° NW visible
31 Oct 8.1 04:51:24 10° NNE 04:54:58 18° ENE 04:58:29 10° ESE visible
31 Oct 5.7 06:30:57 10° NNW 06:35:56 47° W 06:40:53 10° SSW visible
31 Oct 8.1 19:27:38 10° SW 19:31:37 22° WNW 19:35:38 10° NNW visible
01 Nov 5.5 05:57:15 10° N 06:02:29 89° W 06:07:41 10° S visible
01 Nov 7.0 18:53:01 10° SSW 18:57:53 40° W 19:02:47 10° NNW visible
02 Nov 6.4 04:23:52 10° N 04:28:54 48° E 04:33:55 10° SSE visible
02 Nov 6.9 06:05:47 10° NW 06:09:10 18° W 06:12:33 10° WSW visible
03 Nov 7.5 03:50:52 10° NNE 03:55:13 26° E 03:59:32 10° SE visible
03 Nov 6.1 05:31:19 10° NNW 05:35:54 32° W 05:40:29 10° SSW visible
03 Nov 8.4 18:28:54 10° WSW 18:31:54 15° WNW 18:34:54 10° NW visible
